Regional Weather Roundup
Issued by NWS Newport/Morehead, NC

Current Version | Previous Version | Text Only | Print | Product List | Glossary On
Versions: 1 2 3 4 5 6 7 8 9 10 11 12 13 14 15 16 17 18 19 20 21 22 23 24 25 26 27 28 29 30 31 32 33 34 35 36 37 38 39 40 41 42 43 44 45 46 47 48 49 50
000 ASUS42 KMHX 211322 RWRMHX WEATHER ROUNDUP FOR EASTERN NORTH CAROLINA NATIONAL WEATHER SERVICE NEWPORT/MOREHEAD CITY NC 800 AM EST FRI NOV 21 2014 NOTE: "FAIR" INDICATES FEW OR NO CLOUDS BELOW 12,000 FEET WITH NO SIGNIFICANT WEATHER AND/OR OBSTRUCTIONS TO VISIBILITY NCZ015>017-031-032-045>047-102-103-211400- NORTH COAST CITY SKY/WX TMP DP RH WIND PRES REMARKS EDENTON N/A 38 27 66 N9 30.36R ELIZABETH CITY SUNNY 41 28 60 N14 30.34R KITTY HAWK SUNNY 44 31 59 N8G16 30.31R MANTEO SUNNY 42 34 71 NW10G17 30.32R $$ NCZ045>047-081-094-103-104-211400- CENTRAL COAST CITY SKY/WX TMP DP RH WIND PRES REMARKS FRISCO SUNNY 44 29 55 NW10G20 30.30R SWANQUARTER N/A 41 N/A N/A NW3G13 30.30R $$ NCZ095-097-098-100-101-211400- SOUTHERN COAST CITY SKY/WX TMP DP RH WIND PRES REMARKS BEAUFORT SUNNY 44 32 62 N12 30.34R CEDAR ISLAND N/A 46 N/A N/A NW17G25 30.39R JACKSONVILLE SUNNY 43 27 53 N13 30.34R PINEY ISLAND SUNNY 48 26 42 N14 30.34R WILMINGTON MOSUNNY 43 34 70 N6 30.34R $$ NCZ011>013-027>030-043-044-078>080-089-090>093-098-211400- COASTAL PLAIN CITY SKY/WX TMP DP RH WIND PRES REMARKS AHOSKIE SUNNY 35 19 50 N7 30.39R CLINTON SUNNY 40 28 62 N3 30.36R ELIZABETHTOWN SUNNY 41 32 70 CALM 30.36R GOLDSBORO SUNNY 39 24 55 VRB6 30.35R GREENVILLE SUNNY 37 27 65 N6 30.37R HAVELOCK SUNNY 45 25 45 N15 30.35R KENANSVILLE SUNNY 40 28 62 N5 30.38R KINSTON SUNNY 37 27 65 N5 30.37R NEW BERN SUNNY 43 27 53 N6 30.37R RICHLANDS FAIR 43 25 49 N7 30.37R ROCKY MOUNT SUNNY 35 22 58 N9 30.37R WASHINGTON SUNNY 38 24 56 N7 30.37R WHITEVILLE SUNNY 41 34 75 CALM 30.35R $$ AMZ130-135-150-152-154-156-158-170-250-252-270-ANZ085-086-088-633-658-670-211400- MARINE OBSERVATIONS STATION/POSITION TIME TEMP WIND PRES WAVE SWELL AIR SEA DIR/SP/G HT/PER HT/PER (UTC) (F) (DEG/KT/KT) (MB) (FT/S) (FT/S) CHESAPEAKE LIGHT 1300 39 340/ 21/ 23 1027.9 64 E VA BEACH 1300 44 61 350/ 19/ 23 1025.3 5/ 6 DUCK 1300 44 55 350/ 19/ 20 1025.6 2 E DUCK 1300 56 N/A 3/ 4 10 NE DUCK 1300 58 N/A 3/ 4 OREGON INLET 1300 43 46 320/ 14/ 19 1025.9 13E OREGON INLT 1300 63 N/A 4/ 4 HATTERAS CG 1300 46 53 320/ 19/ 21 1026.7 DIAMOND BUOY 1300 51 310/ 19/ 23 1025.6 6/ 8 3/ 8 17 S OCRACOKE NOT AVBL CAPE LOOKOUT 1300 46 350/ 15/ 18 1026.9 BEAUFORT LAB 1300 44 55 360/ 12/ 15 1026.4 30 SE NEW RIVER 1300 53 69 360/ 17/ 21 1025.9 4/ 7 2/ 9 5 SE WRIGHTSVLE 1300 47 60 360/ 17/ 21 1026.9 225 S CAPE HAT 1250 69 73 330/ 16/ 19 1024.7 5/ 7 2/12 41 SE CHARLESTON 1300 62 72 330/ 17/ 21 1026.0 4/ 4 2/ 9 $$

USA.gov is the U.S. government's official web portal to all federal, state and local government web resources and services.